EHI
0 0 0 0 0 0 0 0 0 0 0 0 0 0 0 0 0 0 0 0 0 0 0 0 0 0 0 0 0 0 0 0 0 0 0 0 0 0
0 0 0 0 0 0 0 0 0 0 0 0 0 0 0 0 0 0 0 0 0 0 0 0 0 0 0 0 0 0 0 0 0 0 0 0 0 0
0 0 0 0 0 0 0 0 0 0 0 0 0 0 0 0 0 0 0 0 0 0 0 0 0 0 0 0 0 0 0 0 0 0 0 0 0 0
0 0 0 0 0 0 0 0 0 0 0 0 0 0 0 0 0 0 0 0 0 0 0 0 0 0 0 0 0 0 0 0 0 0 0 0 0 0
0 0 0 0 0 0 0 0 0 0 0 0 0 0 0 0 0 0 0 0 0 0 0 0 0 0 0 0 0 0 0 0 0 0 0 0 0 0
0 0 0 0 0 0 0 0 0 0 0 0 0 0 0 0 0 0 0 0 0 0 0 0 0 0 0 0 0 0 0 0 0 0 0 0 0 0
0 0 0 0 0 0 0 0 0 0 0 0 0 0 0 0 0 0 0 0 0 0 0 0 0 0 0 0 0 0 0 0 0 0 0 0 0 0
0 0 0 0 0 0 0 0 0 0 0 0 0 0 0 0 0 0 0 0 0 0 0 0 0 0 0 0 0 0 0 0 0 0 0 0 0 0
0 0 0 0 0 0 0 0 0 0 0 0 0 0 0 0 0 0 0 0 0 0 0 0 0 0 0 0 0 0 0 0 0 0 0 0 0 0
0 0 0 0 0 0 0 0 0 0 0 0 0 0 0 0 0 0 0 0 0 0 0 0 0 0 0 0 0 0 0 0 0 0 0 0 0 0
0 0 0 0 0 0 0 0 0 0 0 0 0 0 0 0 0 0 0 0 0 0 0 0 0 0 0 0 0 0 0 0 0 0 0 0 0 0
0 0 0 0 0 0 0 0 0 0 0 0 0 0 0 0 0 0 0 0 0 0 0 0 0 0 0 0 0 0 0 0 0 0 0 0 0 0
0 0 0 0 0 0 0 0 0 0 0 0 0 0 0 0 0 0 0 0 0 0 0 0 0 0 0 0 0 0 0 0 0 0 0 0 0 0
0 0 0 0 0 0 0 0 0 0 0 0 0 0 0 0 0 0 0 0 0 0 0 0 0 0 0 0 0 0 0 0 0 0 0 0 0 0
0 0 0 0 0 0 0 0 0 0 0 0 0 0 0 0 0 0 0 0 0 0 0 0 0 0 0 0 0 0 0 0 0 0 0 0 0 0
0 0 0 0 0 0 0 0 0 0 0 0 0 0 0 0 0 0 0 0 0 0 0 0 0 0 0 0 0 0 0 0 0 0 0 0 0 0
0 0 0 0 0 0 0 0 0 0 0 0 0 0 0 0 0 0 0 0 0 0 0 0 0 0 0 0 0 0 0 0 0 0 0 0 0 0
0 0 0 0 0 0 0 0 0 0 0 0 0 0 0 0 0 0 0 0 0 0 0 0 0 0 0 0 0 0 0 0 0 0 0 0 0 0
0 0 0 0 0 0 0 0 0 0 0 0 0 0 0 0 0 0 0 0 0 0 0 0 0 0 0 0 0 0 0 0 0 0 0 0 0 0
0 0 0 0 0 0 0 0 0 0 0 0 0 0 0 0 0 0 0 0 0 0 0 0 0 0 0 0 0 0 0 0 0 0 0 0 0 0
0 0 0 0 0 0 0 0 0 0 0 0 0 0 0 0 0 0 0 0 0 0 0 0 0 0 0 0 0 0 0 0 0 0 0 0 0 0
0 0 0 0 0 0 0 0 0 0 0 0 0 0 0 0 0 0 0 0 0 0 0 0 0 0 0 0 0 0 0 0 0 0 0 0 0 0
0 0 0 0 0 0 0 0 0 0 0 0 0 0 0 0 0 0 0 0 0 0 0 0 0 0 0 0 0 0 0 0 0 0 0 0 0 0
Wind_Speed
2 2 2 2 2 2 2 2 2 4 4 3 2 2 2 2 5 3 3 7 10 10 10 9 9 10 11 11 12 12 12 12 12 13 13 13 13 14
2 2 2 2 2 2 2 2 2 3 5 3 2 3 3 5 7 4 3 9 10 10 10 10 10 10 11 12 12 12 12 11 12 13 13 14 14 14
3 3 3 3 2 2 2 2 2 3 5 5 3 3 3 4 5 4 4 4 4 9 10 11 11 11 11 12 12 12 11 12 12 13 14 14 14 14
3 3 4 3 3 2 2 3 3 3 4 6 4 3 4 3 4 4 5 4 3 8 10 11 11 11 11 12 12 11 11 11 12 13 13 14 14 14
4 4 4 4 4 3 3 3 3 4 3 4 5 3 3 3 3 4 5 4 5 6 9 9 10 11 12 12 12 11 11 11 12 13 13 13 13 14
4 4 4 5 5 5 5 4 3 3 3 4 4 4 3 3 2 3 4 3 4 5 6 7 9 11 12 13 12 12 12 12 12 13 13 13 13 14
4 5 5 6 8 6 5 4 3 3 3 4 4 4 3 3 3 3 4 3 4 3 3 4 5 4 5 9 11 12 13 12 13 13 13 13 13 14
5 4 5 6 7 9 10 9 8 6 5 5 4 5 5 3 2 3 4 4 4 2 3 5 4 4 4 4 9 13 13 13 13 13 13 13 14 14
4 4 4 5 6 4 7 9 9 11 10 6 6 6 5 4 4 4 5 5 6 4 4 6 4 5 4 6 12 13 13 13 12 12 13 13 14 14
4 4 5 5 5 5 5 5 5 6 7 6 5 5 5 5 5 5 6 5 5 4 4 6 5 5 5 4 10 12 12 13 13 13 13 13 13 13
4 4 5 5 8 9 5 4 5 5 8 9 10 9 10 10 8 4 4 4 6 5 3 4 4 5 5 5 6 10 11 12 13 13 14 13 13 13
3 4 7 7 9 9 5 4 5 5 4 5 6 6 6 6 9 5 4 4 4 4 3 3 4 4 5 4 3 4 6 10 13 14 14 14 14 8
3 3 4 9 10 9 7 4 7 6 3 4 3 3 3 3 3 3 3 4 5 5 4 3 4 4 5 6 5 4 4 5 6 8 11 13 14 11
3 3 4 8 9 8 6 6 7 6 2 2 3 3 3 2 2 3 3 4 5 6 5 4 5 5 6 7 7 4 4 5 5 6 5 10 11 13
2 5 6 8 7 5 6 7 5 2 2 2 3 3 2 2 2 3 3 4 4 5 5 5 5 5 5 7 7 6 6 5 5 5 5 5 5 6
3 4 6 7 6 5 4 4 2 2 2 3 3 2 2 2 3 3 3 3 4 4 4 5 5 6 6 7 7 7 6 5 5 5 6 6 5 5
3 1 2 2 2 2 2 2 1 2 2 2 2 2 3 3 3 3 3 3 4 5 5 4 4 4 6 6 7 7 6 6 5 5 5 6 6 5
3 2 2 2 2 2 2 2 1 2 2 2 2 3 3 3 3 3 3 3 4 5 5 4 4 5 5 5 7 7 6 5 5 5 5 6 7 6
2 2 2 2 2 2 2 2 2 2 2 2 3 3 3 3 3 3 4 4 4 5 5 4 4 4 6 7 5 5 6 5 5 5 5 6 8 7
1 2 2 2 2 2 2 2 2 2 3 3 3 3 3 3 3 4 4 4 5 5 5 4 4 4 6 7 7 7 8 7 5 6 6 6 7 9
2 2 2 2 2 2 2 2 3 3 3 3 3 3 3 3 4 4 4 7 6 5 6 6 5 8 5 4 6 7 6 8 9 7 7 6 7 6
2 3 3 2 2 2 3 3 3 3 4 3 3 3 3 3 4 5 5 5 5 5 6 6 5 4 4 5 8 9 8 7 8 12 12 10 7 6
3 3 3 3 3 3 3 3 4 4 4 4 3 3 3 4 4 4 5 5 5 5 6 6 5 4 5 6 7 8 9 9 6 6 7 10 12 14
Wind_Direction
236 246 253 259 258 255 241 218 235 275 281 271 281 301 316 306 301 292 281 295 302 303 304 305 306 309 307 305 303 302 301 300 298 294 291 289 285 283
238 238 249 258 261 257 245 244 236 249 271 269 274 289 300 299 297 296 285 300 301 302 303 303 303 304 304 302 298 295 294 295 296 295 291 287 285 283
239 238 245 248 252 255 253 247 250 247 265 279 276 276 276 287 296 294 285 278 283 296 299 301 301 302 303 304 299 295 292 291 290 291 291 289 286 283
231 235 246 248 246 249 248 247 249 247 257 275 283 280 275 276 284 285 293 295 287 296 299 300 300 301 302 302 302 298 294 291 289 288 287 287 286 286
230 230 238 239 246 245 248 251 252 263 262 266 277 276 277 280 287 293 292 289 291 296 301 299 301 304 305 305 305 300 295 291 288 287 286 286 286 286
237 237 237 239 243 242 246 243 247 257 260 262 269 274 276 277 274 286 294 290 290 297 298 301 303 306 306 305 305 304 296 291 289 287 287 287 286 286
241 245 245 251 254 253 251 237 233 243 249 259 267 274 272 276 271 277 289 297 288 285 295 293 295 292 295 296 300 301 296 290 290 288 287 286 285 285
242 246 249 257 263 266 270 266 255 245 241 247 258 260 266 266 269 277 284 293 289 284 290 290 287 284 283 275 296 298 298 292 288 288 288 285 284 284
242 246 257 256 266 257 266 270 271 269 265 256 250 255 260 259 263 272 273 277 275 281 293 287 279 278 282 294 298 299 300 300 294 292 292 290 288 286
247 243 246 249 252 254 250 255 255 261 265 263 252 255 260 257 249 260 266 275 278 278 275 277 279 277 289 289 296 296 300 302 302 301 298 298 296 292
250 251 251 241 252 260 258 259 266 266 271 270 268 268 272 276 275 267 264 271 278 280 271 267 280 289 286 281 286 297 304 306 305 304 302 300 299 300
250 252 260 261 260 263 251 242 257 265 269 276 278 282 282 281 283 269 258 263 276 279 268 275 286 299 293 278 284 302 300 300 302 303 302 300 300 297
250 248 254 267 269 271 270 249 258 271 262 261 262 264 267 267 270 268 261 257 265 268 278 289 283 284 277 286 289 285 285 290 294 295 298 299 299 296
255 253 258 271 276 279 279 271 276 283 271 263 266 266 266 270 276 276 274 270 264 268 275 273 271 274 279 282 284 287 284 285 286 287 287 295 295 296
264 273 278 278 282 285 284 283 283 274 262 262 266 269 272 273 277 280 281 278 280 278 278 271 265 270 266 272 281 285 290 288 280 282 286 286 285 289
281 277 288 290 286 284 284 285 273 252 256 259 268 275 278 276 275 276 280 285 286 286 283 276 270 268 269 271 273 279 280 280 284 284 285 284 282 280
275 262 259 268 263 264 266 256 253 260 268 259 259 267 274 277 278 277 277 283 281 285 292 292 285 277 267 270 271 271 274 276 277 283 288 288 282 279
272 248 253 261 261 265 265 274 278 271 267 265 260 257 265 271 277 279 279 278 279 284 289 293 297 297 288 270 256 267 270 273 280 284 282 284 285 282
258 244 244 248 258 262 269 271 274 276 276 269 264 262 265 269 271 276 277 276 278 281 283 286 286 282 286 287 282 273 280 284 287 284 277 273 278 283
252 249 254 254 257 261 265 269 274 276 271 268 265 263 259 262 267 269 269 268 274 279 282 279 274 267 263 276 285 289 285 276 277 279 283 282 276 283
257 255 256 256 257 257 260 263 265 266 268 266 262 262 260 259 265 267 269 274 278 277 278 279 276 287 280 277 278 280 281 282 280 275 278 283 286 285
258 257 256 253 255 255 257 257 261 264 266 265 264 263 261 258 260 263 265 268 271 272 276 281 285 287 276 270 275 282 289 292 290 290 283 273 270 273
252 256 255 252 251 251 253 256 259 260 260 262 264 265 263 262 262 262 263 266 270 275 281 286 287 281 274 271 274 278 283 288 293 293 286 286 283 283